,,,PA_Meas_PMT16A,,PR_Meas_QMR101_102,,RH_Meas_QMH101,,SR_Meas_QMS101,,TA_Meas_QMH101,,GenWind,,GenWind,
date,time,status,PA,status,PR,status,RH,status,SR,status,TA,status,DirAvg,status,SpdAvg,
2011-03-23, 00:00:05,VALID,1002.4,VALID,0,INVALID,163.609,VALID,0,VALID,25.6292,VALID,3,VALID,0.902344,
2011-03-23, 00:01:05,VALID,1002.39,VALID,0,INVALID,163.594,VALID,0,VALID,25.6311,VALID,352,VALID,1.0293,
2011-03-23, 00:02:05,VALID,1002.37,VALID,0,INVALID,163.594,VALID,0,VALID,25.5902,VALID,4,VALID,1.19844,
2011-03-23, 00:03:05,VALID,1002.35,VALID,0,INVALID,163.586,VALID,0,VALID,25.5902,VALID,12,VALID,1.23438,
2011-03-23, 00:04:05,VALID,1002.32,VALID,0,INVALID,163.601,VALID,0,VALID,25.5902,VALID,3,VALID,1.18086,
2011-03-23, 00:05:05,VALID,1002.32,VALID,0,INVALID,163.594,VALID,0,VALID,25.5902,VALID,359,VALID,0.930078,
2011-03-23, 00:06:05,VALID,1002.31,VALID,0,INVALID,163.578,VALID,0,VALID,25.5902,VALID,15,VALID,1.09883,
2011-03-23, 00:07:05,VALID,1002.33,VALID,0,INVALID,163.571,VALID,0,VALID,25.5902,VALID,359,VALID,1.16133,
2011-03-23, 00:08:05,VALID,1002.32,VALID,0,INVALID,163.609,VALID,0,VALID,25.6116,VALID,26,VALID,1.02305,
2011-03-23, 00:09:05,VALID,1002.32,VALID,0,INVALID,163.601,VALID,0,VALID,25.6311,VALID,359,VALID,1.51133,
2011-03-23, 00:10:05,VALID,1002.29,VALID,0,INVALID,163.594,VALID,0,VALID,25.6292,VALID,15,VALID,1.98477,
2011-03-23, 00:11:05,VALID,1002.28,VALID,0,INVALID,163.571,VALID,0,VALID,25.6895,VALID,32,VALID,1.79141,
2011-03-23, 00:12:05,VALID,1002.28,VALID,0,INVALID,163.586,VALID,0,VALID,25.6895,VALID,10,VALID,0.833594,
2011-03-23, 00:13:05,VALID,1002.22,VALID,0,INVALID,163.586,VALID,0,VALID,25.6486,VALID,17,VALID,0.724219,
2011-03-23, 00:14:05,VALID,1002.24,VALID,0,INVALID,163.586,VALID,0,VALID,25.6097,VALID,11,VALID,1.0207,
2011-03-23, 00:15:05,VALID,1002.22,VALID,0,INVALID,163.617,VALID,0,VALID,25.6116,VALID,14,VALID,1.53398,
2011-03-23, 00:16:05,VALID,1002.22,VALID,0,INVALID,163.594,VALID,0,VALID,25.5727,VALID,7,VALID,1.1832,
2011-03-23, 00:17:05,VALID,1002.22,VALID,0,INVALID,163.601,VALID,0,VALID,25.5921,VALID,23,VALID,1.1918,
2011-03-23, 00:18:05,VALID,1002.22,VALID,0,INVALID,163.578,VALID,0,VALID,25.5707,VALID,14,VALID,1.81367,
2011-03-23, 00:19:05,VALID,1002.22,VALID,0,INVALID,163.601,VALID,0,VALID,25.6311,VALID,18,VALID,1.40703,
2011-03-23, 00:20:05,VALID,1002.24,VALID,0,INVALID,163.609,VALID,0,VALID,25.6311,VALID,14,VALID,0.782031,
2011-03-23, 00:21:05,VALID,1002.25,VALID,0,INVALID,163.578,VALID,0,VALID,25.6116,VALID,16,VALID,0.644922,
2011-03-23, 00:22:05,VALID,1002.24,VALID,0,INVALID,163.594,VALID,0,VALID,25.5902,VALID,358,VALID,0.720312,
2011-03-23, 00:23:05,VALID,1002.2,VALID,0,INVALID,163.601,VALID,0,VALID,25.5921,VALID,14,VALID,0.525391,
2011-03-23, 00:24:05,VALID,1002.21,VALID,0,INVALID,163.609,VALID,0,VALID,25.5707,VALID,356,VALID,0.478125,
2011-03-23, 00:25:05,VALID,1002.19,VALID,0,INVALID,163.609,VALID,0,VALID,25.5532,VALID,4,VALID,1.01172,
2011-03-23, 00:26:05,VALID,1002.22,VALID,0,INVALID,163.609,VALID,0,VALID,25.5318,VALID,16,VALID,1.03945,
2011-03-23, 00:27:05,VALID,1002.23,VALID,0,INVALID,163.601,VALID,0,VALID,25.5921,VALID,353,VALID,0.884766,
2011-03-23, 00:28:05,VALID,1002.22,VALID,0,INVALID,163.815,VALID,0,VALID,25.5921,VALID,350,VALID,0.595703,
2011-03-23, 00:29:05,VALID,1002.21,VALID,0,INVALID,163.601,VALID,0,VALID,25.5513,VALID,33,VALID,0.519141,
2011-03-23, 00:30:05,VALID,1002.19,VALID,0,INVALID,163.624,VALID,0,VALID,25.5532,VALID,16,VALID,1.07617,
2011-03-23, 00:31:05,VALID,1002.2,VALID,0,INVALID,163.601,VALID,0,VALID,25.5921,VALID,350,VALID,0.667969,
2011-03-23, 00:32:05,VALID,1002.21,VALID,0,INVALID,163.639,VALID,0,VALID,25.5921,VALID,19,VALID,1.13398,
2011-03-23, 00:33:05,VALID,1002.17,VALID,0,INVALID,163.609,VALID,0,VALID,25.5921,VALID,18,VALID,0.742188,
2011-03-23, 00:34:05,VALID,1002.14,VALID,0,INVALID,163.594,VALID,0,VALID,25.5513,VALID,36,VALID,0.498828,
2011-03-23, 00:35:05,VALID,1002.17,VALID,0,INVALID,163.647,VALID,0,VALID,25.5513,VALID,5,VALID,0.932813,
2011-03-23, 00:36:05,VALID,1002.16,VALID,0,INVALID,163.594,VALID,0,VALID,25.5513,VALID,3,VALID,0.595312,
2011-03-23, 00:37:05,VALID,1002.15,VALID,0,INVALID,163.586,VALID,0,VALID,25.5921,VALID,13,VALID,0.948047,
2011-03-23, 00:38:05,VALID,1002.12,VALID,0,INVALID,163.601,VALID,0,VALID,25.5921,VALID,16,VALID,1.09141,
2011-03-23, 00:39:05,VALID,1002.12,VALID,0,INVALID,163.609,VALID,0,VALID,25.5513,VALID,24,VALID,0.859766,
2011-03-23, 00:40:05,VALID,1002.13,VALID,0,INVALID,163.617,VALID,0,VALID,25.5142,VALID,5,VALID,0.836719,
2011-03-23, 00:41:05,VALID,1002.11,VALID,0,INVALID,163.601,VALID,0,VALID,25.4753,VALID,18,VALID,0.846484,
2011-03-23, 00:42:05,VALID,1002.11,VALID,0,INVALID,163.639,VALID,0,VALID,25.4928,VALID,29,VALID,0.645312,
2011-03-23, 00:43:05,VALID,1002.1,VALID,0,INVALID,163.876,VALID,0,VALID,25.4928,VALID,16,VALID,1.33711,
2011-03-23, 00:44:05,VALID,1002.04,VALID,0,INVALID,163.601,VALID,0,VALID,25.4753,VALID,29,VALID,0.843359,
2011-03-23, 00:45:05,VALID,1002.05,VALID,0,INVALID,163.617,VALID,0,VALID,25.4149,VALID,23,VALID,1.35195,
2011-03-23, 00:46:05,VALID,1002,VALID,0,INVALID,163.617,VALID,0,VALID,25.4344,VALID,21,VALID,1.07891,
2011-03-23, 00:47:05,VALID,1001.96,VALID,0,INVALID,163.632,VALID,0.100563,VALID,25.4344,VALID,28,VALID,1.07773,
2011-03-23, 00:48:05,VALID,1001.95,VALID,0,INVALID,163.655,VALID,0.100563,VALID,25.4149,VALID,22,VALID,1.12031,
2011-03-23, 00:49:05,VALID,1001.88,VALID,0,INVALID,163.609,VALID,0,VALID,25.4539,VALID,26,VALID,0.866016,
2011-03-23, 00:50:05,VALID,1001.87,VALID,0,INVALID,163.617,VALID,0,VALID,25.4928,VALID,5,VALID,1.17344,
2011-03-23, 00:51:05,VALID,1001.85,VALID,0,INVALID,163.609,VALID,0,VALID,25.5727,VALID,29,VALID,1.27461,
2011-03-23, 00:52:05,VALID,1001.82,VALID,0,INVALID,163.617,VALID,0,VALID,25.5493,VALID,344,VALID,0.40625,
2011-03-23, 00:53:05,VALID,1001.81,VALID,0,INVALID,163.609,VALID,0,VALID,25.5707,VALID,6,VALID,0.614453,
2011-03-23, 00:54:05,VALID,1001.76,VALID,0,INVALID,163.586,VALID,0.100563,VALID,25.5298,VALID,10,VALID,0.838281,
2011-03-23, 00:55:05,VALID,1001.76,VALID,0,INVALID,163.624,VALID,0,VALID,25.5707,VALID,23,VALID,0.606641,
2011-03-23, 00:56:05,VALID,1001.75,VALID,0,INVALID,163.617,VALID,0,VALID,25.6097,VALID,7,VALID,0.944531,
2011-03-23, 00:57:05,VALID,1001.73,VALID,0,INVALID,163.609,VALID,0,VALID,25.5902,VALID,15,VALID,0.714063,
2011-03-23, 00:58:05,VALID,1001.7,VALID,0,INVALID,163.83,VALID,0,VALID,25.5513,VALID,29,VALID,1.34805,
2011-03-23, 00:59:05,VALID,1001.71,VALID,0,INVALID,163.639,VALID,0,VALID,25.5318,VALID,26,VALID,0.908594,
2011-03-23, 01:00:05,VALID,1001.68,VALID,0,INVALID,163.617,VALID,0,VALID,25.5123,VALID,29,VALID,1.1875,
2011-03-23, 01:01:05,VALID,1001.67,VALID,0,INVALID,163.609,VALID,0,VALID,25.5123,VALID,26,VALID,0.870703,
2011-03-23, 01:02:05,VALID,1001.66,VALID,0,INVALID,163.617,VALID,0.100563,VALID,25.5104,VALID,7,VALID,1.2125,
2011-03-23, 01:03:05,VALID,1001.65,VALID,0,INVALID,163.639,VALID,0.100563,VALID,25.5513,VALID,14,VALID,0.835547,
2011-03-23, 01:04:05,VALID,1001.63,VALID,0,INVALID,163.624,VALID,0,VALID,25.5707,VALID,46,VALID,0.734375,
2011-03-23, 01:05:05,VALID,1001.59,VALID,0,INVALID,163.617,VALID,0,VALID,25.5513,VALID,22,VALID,0.547266,
2011-03-23, 01:06:05,VALID,1001.62,VALID,0,INVALID,163.639,VALID,0.100563,VALID,25.5513,VALID,16,VALID,0.602344,
2011-03-23, 01:07:05,VALID,1001.62,VALID,0,INVALID,163.609,VALID,0.100563,VALID,25.5707,VALID,359,VALID,1.14063,
2011-03-23, 01:08:05,VALID,1001.64,VALID,0,INVALID,163.632,VALID,0.100563,VALID,25.5707,VALID,350,VALID,0.524609,
2011-03-23, 01:09:05,VALID,1001.66,VALID,0,INVALID,163.617,VALID,0,VALID,25.5513,VALID,349,VALID,0.332031,
2011-03-23, 01:10:05,VALID,1001.65,VALID,0,INVALID,163.609,VALID,0,VALID,25.5513,VALID,4,VALID,0.369531,
2011-03-23, 01:11:05,VALID,1001.68,VALID,0,INVALID,163.624,VALID,0,VALID,25.5532,VALID,342,VALID,0.315234,
2011-03-23, 01:12:05,VALID,1001.66,VALID,0,INVALID,163.609,VALID,0.100563,VALID,25.5123,VALID,46,VALID,0.301562,
2011-03-23, 01:13:05,VALID,1001.64,VALID,0,INVALID,163.83,VALID,0.100563,VALID,25.4734,VALID,46,VALID,0.183594,
2011-03-23, 01:14:05,VALID,1001.66,VALID,0,INVALID,163.617,VALID,0,VALID,25.3955,VALID,45,VALID,0.512891,
2011-03-23, 01:15:05,VALID,1001.63,VALID,0,INVALID,163.624,VALID,0,VALID,25.3546,VALID,16,VALID,0.424219,
2011-03-23, 01:16:05,VALID,1001.63,VALID,0,INVALID,163.609,VALID,0,VALID,25.337,VALID,16,VALID,0.408203,
2011-03-23, 01:17:05,VALID,1001.64,VALID,0,INVALID,163.647,VALID,0,VALID,25.3176,VALID,12,VALID,0.566406,
2011-03-23, 01:18:05,VALID,1001.62,VALID,0,INVALID,163.617,VALID,0,VALID,25.2981,VALID,357,VALID,0.545313,
2011-03-23, 01:19:05,VALID,1001.62,VALID,0,INVALID,163.639,VALID,0,VALID,25.2786,VALID,335,VALID,0.496094,
2011-03-23, 01:20:05,VALID,1001.57,VALID,0,INVALID,163.632,VALID,0,VALID,25.2592,VALID,330,VALID,0.439453,
2011-03-23, 01:21:05,VALID,1001.56,VALID,0,INVALID,163.647,VALID,0.100563,VALID,25.2221,VALID,330,VALID,0.465625,
2011-03-23, 01:22:05,VALID,1001.57,VALID,0,INVALID,163.655,VALID,0.100563,VALID,25.1813,VALID,331,VALID,0.522656,
2011-03-23, 01:23:05,VALID,1001.52,VALID,0,INVALID,163.639,VALID,0,VALID,25.1404,VALID,333,VALID,0.304688,
2011-03-23, 01:24:05,VALID,1001.53,VALID,0,INVALID,163.678,VALID,0.100563,VALID,25.1229,VALID,322,VALID,0.307813,
2011-03-23, 01:25:05,VALID,1001.52,VALID,0,INVALID,163.624,VALID,0.100563,VALID,25.1034,VALID,322,VALID,0.332812,
2011-03-23, 01:26:05,VALID,1001.54,VALID,0,INVALID,163.632,VALID,0.100563,VALID,25.0839,VALID,321,VALID,0.370313,
2011-03-23, 01:27:05,VALID,1001.53,VALID,0,INVALID,163.662,VALID,0.100563,VALID,25.0839,VALID,322,VALID,0.430078,
2011-03-23, 01:28:05,VALID,1001.52,VALID,0,INVALID,163.876,VALID,0,VALID,25.0858,VALID,322,VALID,0.337891,
2011-03-23, 01:29:05,VALID,1001.5,VALID,0,INVALID,163.639,VALID,0,VALID,25.0858,VALID,322,VALID,0.184375,
2011-03-23, 01:30:05,VALID,1001.51,VALID,0,INVALID,163.647,VALID,0,VALID,25.1053,VALID,322,VALID,0.122266,
2011-03-23, 01:31:05,VALID,1001.48,VALID,0,INVALID,163.662,VALID,0,VALID,25.0839,VALID,341,VALID,0.572656,
2011-03-23, 01:32:05,VALID,1001.46,VALID,0,INVALID,163.647,VALID,0,VALID,25.1248,VALID,32,VALID,1.07969,
2011-03-23, 01:33:05,VALID,1001.47,VALID,0,INVALID,163.624,VALID,0,VALID,25.1423,VALID,15,VALID,0.941016,
2011-03-23, 01:34:05,VALID,1001.45,VALID,0,INVALID,163.647,VALID,0,VALID,25.1813,VALID,11,VALID,0.439453,
2011-03-23, 01:35:05,VALID,1001.42,VALID,0,INVALID,163.624,VALID,0,VALID,25.2611,VALID,357,VALID,1.33477,
2011-03-23, 01:36:05,VALID,1001.45,VALID,0,INVALID,163.609,VALID,0,VALID,25.3176,VALID,11,VALID,0.324609,
2011-03-23, 01:37:05,VALID,1001.44,VALID,0,INVALID,163.624,VALID,0,VALID,25.3584,VALID,360,VALID,0.653516,
2011-03-23, 01:38:05,VALID,1001.42,VALID,0,INVALID,163.639,VALID,0,VALID,25.3565,VALID,18,VALID,0.488281,
2011-03-23, 01:39:05,VALID,1001.44,VALID,0,INVALID,163.624,VALID,0,VALID,25.4169,VALID,12,VALID,0.350781,
2011-03-23, 01:40:05,VALID,1001.4,VALID,0,INVALID,163.609,VALID,0,VALID,25.4363,VALID,350,VALID,0.8,
2011-03-23, 01:41:05,VALID,1001.43,VALID,0,INVALID,163.594,VALID,0,VALID,25.4753,VALID,346,VALID,0.716016,
2011-03-23, 01:42:05,VALID,1001.44,VALID,0,INVALID,163.601,VALID,0,VALID,25.5142,VALID,10,VALID,0.236719,
2011-03-23, 01:43:05,VALID,1001.44,VALID,0,INVALID,163.884,VALID,0,VALID,25.5707,VALID,9,VALID,0.519531,
2011-03-23, 01:44:05,VALID,1001.41,VALID,0,INVALID,163.632,VALID,0,VALID,25.5318,VALID,353,VALID,0.778516,
2011-03-23, 01:45:05,VALID,1001.42,VALID,0,INVALID,163.601,VALID,0.100563,VALID,25.5493,VALID,356,VALID,0.692969,
2011-03-23, 01:46:05,VALID,1001.46,VALID,0,INVALID,163.601,VALID,0.100563,VALID,25.5298,VALID,344,VALID,0.5375,
2011-03-23, 01:47:05,VALID,1001.45,VALID,0,INVALID,163.601,VALID,0.100563,VALID,25.5318,VALID,344,VALID,0.431641,
2011-03-23, 01:48:05,VALID,1001.45,VALID,0,INVALID,163.617,VALID,0.100563,VALID,25.5318,VALID,345,VALID,0.301172,
2011-03-23, 01:49:05,VALID,1001.47,VALID,0,INVALID,163.639,VALID,0.100563,VALID,25.5123,VALID,345,VALID,0.350781,
2011-03-23, 01:50:04,VALID,1001.52,VALID,0,INVALID,163.647,VALID,0.100563,VALID,25.4928,VALID,343,VALID,0.366016,
2011-03-23, 01:51:04,VALID,1001.53,VALID,0,INVALID,163.624,VALID,0.100563,VALID,25.452,VALID,339,VALID,0.201562,
2011-03-23, 01:52:04,VALID,1001.53,VALID,0,INVALID,163.609,VALID,0.100563,VALID,25.452,VALID,338,VALID,0.314844,
2011-03-23, 01:53:04,VALID,1001.53,VALID,0,INVALID,163.655,VALID,0.100563,VALID,25.4539,VALID,338,VALID,0.338672,
2011-03-23, 01:54:04,VALID,1001.53,VALID,0,INVALID,163.632,VALID,0,VALID,25.4344,VALID,324,VALID,0.251563,
2011-03-23, 01:55:04,VALID,1001.53,VALID,0,INVALID,163.624,VALID,0.100563,VALID,25.4344,VALID,324,VALID,0.1625,
2011-03-23, 01:56:04,VALID,1001.55,VALID,0,INVALID,163.617,VALID,0.100563,VALID,25.413,VALID,324,VALID,0.374609,
2011-03-23, 01:57:04,VALID,1001.53,VALID,0,INVALID,163.601,VALID,0.100563,VALID,25.3935,VALID,334,VALID,0.473437,
2011-03-23, 01:58:04,VALID,1001.53,VALID,0,INVALID,163.632,VALID,0,VALID,25.3935,VALID,341,VALID,0.530859,
2011-03-23, 01:59:04,VALID,1001.52,VALID,0,INVALID,163.624,VALID,0.100563,VALID,25.3955,VALID,341,VALID,0.38125,
2011-03-23, 02:00:04,VALID,1001.56,VALID,0,INVALID,163.632,VALID,0,VALID,25.337,VALID,16,VALID,0.586328,
2011-03-23, 02:01:04,VALID,1001.53,VALID,0,INVALID,163.594,VALID,0,VALID,25.337,VALID,18,VALID,0.389453,
2011-03-23, 02:02:04,VALID,1001.54,VALID,0,INVALID,163.624,VALID,0,VALID,25.337,VALID,16,VALID,0.434375,
2011-03-23, 02:03:04,VALID,1001.48,VALID,0,INVALID,163.655,VALID,0.100563,VALID,25.2981,VALID,16,VALID,0.100391,
2011-03-23, 02:04:04,VALID,1001.49,VALID,0,INVALID,163.624,VALID,0.100563,VALID,25.3,VALID,16,VALID,0.371875,
2011-03-23, 02:05:04,VALID,1001.46,VALID,0,INVALID,163.624,VALID,0.100563,VALID,25.2378,VALID,16,VALID,0.251953,
2011-03-23, 02:06:04,VALID,1001.44,VALID,0,INVALID,163.617,VALID,0.100563,VALID,25.2378,VALID,344,VALID,0.0347656,
2011-03-23, 02:07:04,VALID,1001.41,VALID,0,INVALID,163.655,VALID,0,VALID,25.1988,VALID,344,VALID,0.253125,
2011-03-23, 02:08:04,VALID,1001.33,VALID,0,INVALID,163.609,VALID,0.100563,VALID,25.2007,VALID,344,VALID,0.0707031,
2011-03-23, 02:09:04,VALID,1001.34,VALID,0,INVALID,163.655,VALID,0,VALID,25.2027,VALID,344,VALID,0.146484,
2011-03-23, 02:10:04,VALID,1001.31,VALID,0,INVALID,163.624,VALID,0.100563,VALID,25.1813,VALID,344,VALID,0,
2011-03-23, 02:11:04,VALID,1001.27,VALID,0,INVALID,163.624,VALID,0,VALID,25.1618,VALID,344,VALID,0.0957031,
2011-03-23, 02:12:04,VALID,1001.27,VALID,0,INVALID,163.678,VALID,0,VALID,25.1423,VALID,344,VALID,0,
2011-03-23, 02:13:04,VALID,1001.24,VALID,0,INVALID,163.647,VALID,0.100563,VALID,25.1229,VALID,344,VALID,0,
2011-03-23, 02:14:04,VALID,1001.24,VALID,0,INVALID,163.639,VALID,0,VALID,25.1053,VALID,344,VALID,0.396875,
2011-03-23, 02:15:04,VALID,1001.28,VALID,0,INVALID,163.647,VALID,0,VALID,25.0644,VALID,196,VALID,0.911328,
2011-03-23, 02:16:04,VALID,1001.25,VALID,0,INVALID,163.639,VALID,0,VALID,25.0469,VALID,189,VALID,0.908984,
2011-03-23, 02:17:04,VALID,1001.22,VALID,0,INVALID,163.632,VALID,0,VALID,25.0682,VALID,157,VALID,0.967969,
2011-03-23, 02:18:04,VALID,1001.24,VALID,0,INVALID,163.647,VALID,0,VALID,25.0663,VALID,161,VALID,0.783203,
2011-03-23, 02:19:04,VALID,1001.24,VALID,0,INVALID,163.647,VALID,0,VALID,25.0469,VALID,131,VALID,1.49375,
2011-03-23, 02:20:04,VALID,1001.26,VALID,0,INVALID,163.639,VALID,0,VALID,25.0663,VALID,136,VALID,1.03359,
2011-03-23, 02:21:04,VALID,1001.26,VALID,0,INVALID,163.632,VALID,0,VALID,25.0255,VALID,127,VALID,0.727734,
2011-03-23, 02:22:04,VALID,1001.26,VALID,0,INVALID,163.639,VALID,0,VALID,25.0488,VALID,127,VALID,0.667969,
2011-03-23, 02:23:04,VALID,1001.27,VALID,0,INVALID,163.693,VALID,0,VALID,25.0079,VALID,125,VALID,0.746094,
2011-03-23, 02:24:04,VALID,1001.25,VALID,0,INVALID,163.655,VALID,0,VALID,24.9885,VALID,86,VALID,0.977734,
2011-03-23, 02:25:04,VALID,1001.25,VALID,0,INVALID,163.662,VALID,0,VALID,24.9671,VALID,102,VALID,0.941016,
2011-03-23, 02:26:04,VALID,1001.28,VALID,0,INVALID,163.647,VALID,0,VALID,24.9671,VALID,64,VALID,0.792578,
2011-03-23, 02:27:04,VALID,1001.28,VALID,0,INVALID,163.655,VALID,0,VALID,25.0079,VALID,79,VALID,0.440625,
2011-03-23, 02:28:04,VALID,1001.26,VALID,0,INVALID,163.639,VALID,0,VALID,24.9885,VALID,64,VALID,0.652344,
2011-03-23, 02:29:04,VALID,1001.27,VALID,0,INVALID,163.632,VALID,0,VALID,25.0079,VALID,74,VALID,0.483984,
2011-03-23, 02:30:04,VALID,1001.26,VALID,0,INVALID,163.655,VALID,0,VALID,24.9885,VALID,74,VALID,0.325,
2011-03-23, 02:31:04,VALID,1001.27,VALID,0,INVALID,163.67,VALID,0,VALID,24.9885,VALID,74,VALID,0,
2011-03-23, 02:32:04,VALID,1001.28,VALID,0,INVALID,163.655,VALID,0,VALID,24.969,VALID,74,VALID,0.263281,
2011-03-23, 02:33:04,VALID,1001.27,VALID,0,INVALID,163.662,VALID,0,VALID,24.9709,VALID,74,VALID,0,
2011-03-23, 02:34:04,VALID,1001.29,VALID,0,INVALID,163.655,VALID,0,VALID,24.93,VALID,74,VALID,0.35625,
2011-03-23, 02:35:04,VALID,1001.28,VALID,0,INVALID,163.655,VALID,0,VALID,24.8892,VALID,74,VALID,0.495313,
2011-03-23, 02:36:04,VALID,1001.28,VALID,0,INVALID,163.67,VALID,0,VALID,24.8697,VALID,74,VALID,0.603516,
2011-03-23, 02:37:04,VALID,1001.28,VALID,0,INVALID,163.67,VALID,0,VALID,24.8716,VALID,74,VALID,0.584375,
2011-03-23, 02:38:04,VALID,1001.28,VALID,0,INVALID,163.662,VALID,0,VALID,24.8522,VALID,64,VALID,0.469531,
2011-03-23, 02:39:04,VALID,1001.27,VALID,0,INVALID,163.655,VALID,0,VALID,24.8735,VALID,64,VALID,0.469141,
2011-03-23, 02:40:04,VALID,1001.26,VALID,0,INVALID,163.647,VALID,0,VALID,24.8327,VALID,64,VALID,0.0757812,
2011-03-23, 02:41:04,VALID,1001.25,VALID,0,INVALID,163.67,VALID,0,VALID,24.8132,VALID,64,VALID,0.253125,
2011-03-23, 02:42:04,VALID,1001.27,VALID,0,INVALID,163.639,VALID,0,VALID,24.7529,VALID,64,VALID,0.405469,
2011-03-23, 02:43:04,VALID,1001.24,VALID,0,INVALID,163.67,VALID,0,VALID,24.7548,VALID,64,VALID,0.303125,
2011-03-23, 02:44:04,VALID,1001.25,VALID,0,INVALID,163.701,VALID,0.100563,VALID,24.7316,VALID,64,VALID,0.308594,
2011-03-23, 02:45:04,VALID,1001.24,VALID,0,INVALID,163.662,VALID,0.100563,VALID,24.6926,VALID,64,VALID,0.501562,
2011-03-23, 02:46:04,VALID,1001.27,VALID,0,INVALID,163.655,VALID,0,VALID,24.6945,VALID,64,VALID,0.242578,
2011-03-23, 02:47:04,VALID,1001.27,VALID,0,INVALID,163.678,VALID,0.100563,VALID,24.675,VALID,64,VALID,0.148828,
2011-03-23, 02:48:04,VALID,1001.26,VALID,0,INVALID,163.647,VALID,0,VALID,24.6556,VALID,64,VALID,0.116797,
2011-03-23, 02:49:04,VALID,1001.24,VALID,0,INVALID,163.678,VALID,0.100563,VALID,24.6556,VALID,64,VALID,0.232812,
2011-03-23, 02:50:04,VALID,1001.26,VALID,0,INVALID,163.662,VALID,0,VALID,24.6166,VALID,64,VALID,0.0246094,
2011-03-23, 02:51:04,VALID,1001.25,VALID,0,INVALID,163.67,VALID,0.100563,VALID,24.6166,VALID,64,VALID,0.00703125,
2011-03-23, 02:52:04,VALID,1001.26,VALID,0,INVALID,163.701,VALID,0.100563,VALID,24.6166,VALID,64,VALID,0,
2011-03-23, 02:53:04,VALID,1001.2,VALID,0,INVALID,163.693,VALID,0,VALID,24.5972,VALID,64,VALID,0,
2011-03-23, 02:54:04,VALID,1001.16,VALID,0,INVALID,163.678,VALID,0,VALID,24.5777,VALID,64,VALID,0,
2011-03-23, 02:55:04,VALID,1001.18,VALID,0,INVALID,163.693,VALID,0.100563,VALID,24.5564,VALID,64,VALID,0,
2011-03-23, 02:56:04,VALID,1001.19,VALID,0,INVALID,163.701,VALID,0,VALID,24.5582,VALID,64,VALID,0,
2011-03-23, 02:57:04,VALID,1001.17,VALID,0,INVALID,163.662,VALID,0,VALID,24.5582,VALID,64,VALID,0,
2011-03-23, 02:58:04,VALID,1001.18,VALID,0,INVALID,163.685,VALID,0.100563,VALID,24.5582,VALID,64,VALID,0,
2011-03-23, 02:59:04,VALID,1001.19,VALID,0,INVALID,163.655,VALID,0,VALID,24.5388,VALID,64,VALID,0,
2011-03-23, 03:00:04,VALID,1001.24,VALID,0,INVALID,163.701,VALID,0,VALID,24.5388,VALID,64,VALID,0,
2011-03-23, 03:01:04,VALID,1001.23,VALID,0,INVALID,163.685,VALID,0,VALID,24.5193,VALID,64,VALID,0,
2011-03-23, 03:02:04,VALID,1001.23,VALID,0,INVALID,163.693,VALID,0,VALID,24.5406,VALID,64,VALID,0,
2011-03-23, 03:03:04,VALID,1001.27,VALID,0,INVALID,163.678,VALID,0,VALID,24.4998,VALID,64,VALID,0,
2011-03-23, 03:04:04,VALID,1001.24,VALID,0,INVALID,163.67,VALID,0,VALID,24.5406,VALID,64,VALID,0,
2011-03-23, 03:05:04,VALID,1001.26,VALID,0,INVALID,163.708,VALID,0,VALID,24.5212,VALID,64,VALID,0.153516,
2011-03-23, 03:06:04,VALID,1001.25,VALID,0,INVALID,163.701,VALID,0,VALID,24.4998,VALID,64,VALID,0.0117188,
2011-03-23, 03:07:04,VALID,1001.25,VALID,0,INVALID,163.662,VALID,0,VALID,24.4804,VALID,64,VALID,0,
2011-03-23, 03:08:04,VALID,1001.29,VALID,0,INVALID,163.693,VALID,0,VALID,24.5212,VALID,64,VALID,0,
2011-03-23, 03:09:04,VALID,1001.26,VALID,0,INVALID,163.701,VALID,0,VALID,24.5212,VALID,64,VALID,0,
2011-03-23, 03:10:04,VALID,1001.27,VALID,0,INVALID,163.685,VALID,0,VALID,24.4998,VALID,64,VALID,0,
2011-03-23, 03:11:04,VALID,1001.29,VALID,0,INVALID,163.716,VALID,0,VALID,24.4804,VALID,64,VALID,0.353906,
2011-03-23, 03:12:04,VALID,1001.32,VALID,0,INVALID,163.693,VALID,0,VALID,24.5212,VALID,64,VALID,0.313281,
2011-03-23, 03:13:04,VALID,1001.33,VALID,0,INVALID,163.701,VALID,0,VALID,24.5212,VALID,64,VALID,0.470313,
2011-03-23, 03:14:04,VALID,1001.37,VALID,0,INVALID,163.685,VALID,0.100563,VALID,24.5193,VALID,64,VALID,0.298047,
2011-03-23, 03:15:04,VALID,1001.36,VALID,0,INVALID,163.708,VALID,0.100563,VALID,24.5193,VALID,64,VALID,0.476953,
2011-03-23, 03:16:04,VALID,1001.39,VALID,0,INVALID,163.716,VALID,0.100563,VALID,24.5174,VALID,64,VALID,0.317187,
2011-03-23, 03:17:04,VALID,1001.39,VALID,0,INVALID,163.685,VALID,0.100563,VALID,24.5388,VALID,64,VALID,0.375,
2011-03-23, 03:18:04,VALID,1001.37,VALID,0,INVALID,163.693,VALID,0.100563,VALID,24.5174,VALID,64,VALID,0.230469,
2011-03-23, 03:19:04,VALID,1001.41,VALID,0,INVALID,163.678,VALID,0.100563,VALID,24.5369,VALID,64,VALID,0.219922,
2011-03-23, 03:20:04,VALID,1001.38,VALID,0,INVALID,163.685,VALID,0,VALID,24.5777,VALID,64,VALID,0.498828,
2011-03-23, 03:21:04,VALID,1001.41,VALID,0,INVALID,163.678,VALID,0.100563,VALID,24.5972,VALID,64,VALID,0.436719,
2011-03-23, 03:22:04,VALID,1001.42,VALID,0,INVALID,163.693,VALID,0.100563,VALID,24.6148,VALID,64,VALID,0.39375,
2011-03-23, 03:23:04,VALID,1001.42,VALID,0,INVALID,163.678,VALID,0,VALID,24.6148,VALID,64,VALID,0.269922,
2011-03-23, 03:24:04,VALID,1001.43,VALID,0,INVALID,163.655,VALID,0.100563,VALID,24.6361,VALID,64,VALID,0.269141,
2011-03-23, 03:25:04,VALID,1001.43,VALID,0,INVALID,163.708,VALID,0.100563,VALID,24.6148,VALID,64,VALID,0.375,
2011-03-23, 03:26:04,VALID,1001.42,VALID,0,INVALID,163.67,VALID,0,VALID,24.6556,VALID,111,VALID,1.00586,
2011-03-23, 03:27:04,VALID,1001.46,VALID,0,INVALID,163.662,VALID,0.100563,VALID,24.7724,VALID,113,VALID,0.887891,
2011-03-23, 03:28:04,VALID,1001.44,VALID,0,INVALID,163.655,VALID,0.100563,VALID,24.8484,VALID,116,VALID,0.594922,
2011-03-23, 03:29:04,VALID,1001.46,VALID,0,INVALID,163.655,VALID,0,VALID,24.9495,VALID,78,VALID,0.302734,
2011-03-23, 03:30:04,VALID,1001.47,VALID,0,INVALID,163.647,VALID,0,VALID,24.9671,VALID,78,VALID,0.192969,
2011-03-23, 03:31:04,VALID,1001.48,VALID,0,INVALID,163.67,VALID,0,VALID,25.0079,VALID,78,VALID,0.021875,
2011-03-23, 03:32:04,VALID,1001.52,VALID,0,INVALID,163.632,VALID,0,VALID,25.006,VALID,78,VALID,0,
2011-03-23, 03:33:04,VALID,1001.5,VALID,0,INVALID,163.639,VALID,0,VALID,25.0255,VALID,78,VALID,0.210156,
2011-03-23, 03:34:04,VALID,1001.52,VALID,0,INVALID,163.647,VALID,0,VALID,25.0663,VALID,64,VALID,0.517578,
2011-03-23, 03:35:04,VALID,1001.51,VALID,0,INVALID,163.647,VALID,0,VALID,25.1034,VALID,64,VALID,0.275391,
2011-03-23, 03:36:04,VALID,1001.5,VALID,0,INVALID,163.632,VALID,0,VALID,25.1832,VALID,64,VALID,0.346484,
2011-03-23, 03:37:04,VALID,1001.51,VALID,0,INVALID,163.632,VALID,0,VALID,25.2202,VALID,64,VALID,0.0800781,
2011-03-23, 03:38:04,VALID,1001.49,VALID,0,INVALID,163.632,VALID,0,VALID,25.2202,VALID,232,VALID,1.01758,
2011-03-23, 03:39:04,VALID,1001.5,VALID,0,INVALID,163.632,VALID,0,VALID,25.3176,VALID,173,VALID,0.657812,